This demonstration page uses our WeatherBlox Daily Observations layout. Learn more.

Left ArrowRight Arrow

31.31129, -92.44514

Hourly Observations for July 7, 2022

Temp ( °F °C ) Dew Point ( °F °C ) Humidity (%) Winds ( mph kmh ) Pressure ( in mb ) Visibility ( mi km ) Precip ( " mm )
12:53 am 00:53 Clear 79 26.1 76 24.4 90 90 SE 7 11 29.98 1015 9 14 0.00 0.00
1:53 am 01:53 Clear 78 25.6 76 24.4 93 93 S 3 6 29.97 1015 8 13 0.00 0.00
2:53 am 02:53 Clear 78 25.6 75 23.9 90 90 S 6 9 29.96 1014 6 10 0.00 0.00
3:53 am 03:53 Clear 77 25 75 23.9 94 94 Calm 29.96 1015 6 10 0.00 0.00
4:53 am 04:53 Clear 78 25.6 75 23.9 90 90 Calm 29.96 1015 8 13 0.00 0.00
5:53 am 05:53 Clear 77 25 75 23.9 94 94 Calm 29.98 1015 7 11 0.00 0.00
6:53 am 06:53 Sunny 78 25.6 75 23.9 90 90 Calm 29.99 1016 5 8 0.00 0.00
7:53 am 07:53 Sunny 80 26.7 77 25 90 90 Calm 30.01 1016 8 13 0.00 0.00
8:53 am 08:53 Sunny 83 28.3 77 25 82 82 VRB 3 6 30.03 1017 10 16 0.00 0.00
9:36 am 09:36 Mostly Cloudy 85 29.4 77 25 77 77 WSW 3 6 30.02 1016 10 16 0.00 0.00
9:45 am 09:45 Partly Cloudy 86 30 77 25 75 75 WSW 6 9 30.02 1016 10 16 0.00 0.00
9:53 am 09:53 Mostly Sunny 86 30 77 25 75 75 SW 6 9 30.02 1017 10 16 0.00 0.00
10:49 am 10:49 Mostly Cloudy 88 31 75 24 66 66 W 5 7 30.02 1017 10 16 0.00 0.00
10:53 am 10:53 Partly Cloudy 88 31.1 76 24.4 68 68 W 3 6 30.03 1017 10 16 0.00 0.00
11:53 am 11:53 Partly Cloudy 91 32.8 75 23.9 59 59 Calm 30.02 1017 10 16 0.00 0.00
12:53 pm 12:53 Mostly Cloudy 93 33.9 73 22.8 52 52 WSW 5 7 30.01 1016 10 16 0.00 0.00
1:53 pm 13:53 Sunny 95 35 73 22.8 49 49 Calm 29.99 1016 10 16 0.00 0.00
2:53 pm 14:53 Sunny 93 33.9 74 23.3 54 54 S 6 9 29.98 1015 10 16 0.00 0.00
3:53 pm 15:53 Sunny 89 31.7 76 24.4 65 65 S 14 22 29.97 1015 10 16 0.00 0.00
4:53 pm 16:53 Sunny 88 31.1 76 24.4 68 68 SSE 12 19 29.97 1015 10 16 0.00 0.00
5:53 pm 17:53 Sunny 88 31.1 76 24.4 68 68 S 8 13 29.95 1014 10 16 0.00 0.00
6:53 pm 18:53 Sunny 89 31.7 77 25 68 68 S 6 9 29.93 1014 10 16 0.00 0.00
7:53 pm 19:53 Sunny 88 31.1 77 25 70 70 S 3 6 29.93 1014 10 16 0.00 0.00
8:53 pm 20:53 Clear 85 29.4 77 25 77 77 SSE 6 9 29.94 1014 10 16 0.00 0.00
9:53 pm 21:53 Clear 83 28.3 77 25 82 82 SSE 5 7 29.96 1015 10 16 0.00 0.00
10:53 pm 22:53 Clear 83 28.3 77 25 82 82 SE 6 9 29.98 1015 10 16 0.00 0.00
11:53 pm 23:53 Clear 81 27.2 77 25 88 88 SSE 3 6 29.98 1015 10 16 0.00 0.00

Powered by AerisWeather